Current Version              Previous Version:    01  02  03  04  05  06  07  08  09  10  11  12  13  14  15  16  17  18  19  20  21  22  23  24  25  26  27  28  29  30  
   31  32  33  34  35  36  37  38  39  40  41  42  43  44  45  46  47  48  49  50  51  52  53  54  55  56  57  58  59  60  

[Printable]
121
ASUS44 KEWX 221510
RWRTX
SOUTH TEXAS REGIONAL WEATHER ROUNDUP
NATIONAL WEATHER SERVICE AUSTIN/SAN ANTONIO TX
1000 AM CDT FRI AUG 22 2014

NOTE: "FAIR" INDICATED FEW OR NO CLOUDS BELOW 12,000 FEET WITH NO
SIGNIFICANT WEATHER AND/OR OBSTRUCTIONS TO VISIBILITY.

* - THESE STATIONS ARE NOT NWS OR FAA STATIONS...AND ARE NOT SUBJECT
    TO NWS AND FAA QUALITY CONTROL.

TXZ171-172-183>190-221600-
TEXAS HILL COUNTRY AND EDWARDS PLATEAU

CITY           SKY/WX    TMP DP  RH WIND       PRES   REMARKS
JUNCTION       SUNNY     80  66  62 S14       30.10S
*LLANO         SUNNY     86  66  51 SW9       30.12S
BURNET         SUNNY     83  67  58 S14       30.12R
*HORSESHOE BAY SUNNY     84  66  55 S5G16     30.09S
*KERRVILLE     SUNNY     79  69  70 S10G17    30.11S
*FREDERICKSBRG SUNNY     80  65  59 S15       30.11R
*ROCKSPRINGS   SUNNY     77  66  69 S15       30.14R
*BOERNE STAGE  MOSUNNY   81  66  61 S12G17    30.12R
*CASTROVILLE   SUNNY     84  68  57 S10       30.08F
HONDO          MOSUNNY   82  70  66 S14       30.09S
*UVALDE        MOSUNNY   81  72  74 S9G16     30.07S
DEL RIO        SUNNY     81  68  64 SE13G23   30.03R
LAUGHLIN AFB   MOSUNNY   81  69  67 S15       30.04S
CARRIZO SPRGS  SUNNY     82  68  61 SE9G18    30.02S
$$

TXZ173-191>194-202-209-217>225-228-221600-
CENTRAL AND SOUTH CENTRAL TEXAS

CITY           SKY/WX    TMP DP  RH WIND       PRES   REMARKS
GEORGETOWN     MOSUNNY   84  68  58 S12       30.09S
AUSTIN/BERGSTM MOSUNNY   86  71  60 S17G23    30.07R HX  91
AUSTIN/MABRY   SUNNY     85  72  65 S6        30.08S HX  91
*AUSTIN/EXEC   SUNNY     84  72  65 SW15      30.08S
*LAGO VISTA    SUNNY     84  68  59 S13G20    30.10S
SAN MARCOS     MOSUNNY   84  70  61 S15       30.09S
NEW BRAUNFELS  SUNNY     86  71  60 S14       30.06S HX  91
RANDOLPH AFB   SUNNY     85  70  61 S10       30.08S
PT SAN ANTONIO MOSUNNY   84  71  65 S10       30.06S HX  90
SAN ANTONIO    MOSUNNY   85  71  63 S10       30.08S HX  90
STINSON FIELD  MOSUNNY   85  72  65 S9        30.05F HX  91
*PLEASANTON    SUNNY     85  70  59 SE7       30.06S HX  90
*LA GRANGE     MOSUNNY   88  76  67 S9        30.06S HX  99
*GIDDINGS      SUNNY     85  73  65 S8G18     30.11S HX  92
*GONZALES      MOSUNNY   87  74  65 S12       30.07R HX  96
$$

TXZ163>164-176>182-195>201-210>213-226-227-235-221600-
SOUTHEAST TEXAS

CITY           SKY/WX    TMP DP  RH WIND       PRES   REMARKS
COLLEGE STN    MOSUNNY   84  75  74 SW9       30.08S HX  92
*BRYAN         PTSUNNY   85  76  74 S10       30.09R HX  94
*CALDWELL      PTSUNNY   84  73  70 S13       30.11R HAZE    HX  91
*CROCKETT      PTSUNNY   86  81  84 S9        30.13S HX 102
*BRENHAM       MOSUNNY   87  76  70 S10G17    30.09R HX  97
HUNTSVILLE     CLOUDY    83  75  77 S10       30.11R HX  90
CONROE         PTSUNNY   85  77  77 VRB6      30.10S HX  95
HOUSTON BUSH   MOSUNNY   87  77  72 S6        30.09S HX  99
HOUSTON HOBBY  MOSUNNY   86  76  71 S6        30.08S HX  96
*HOUSTON SW AP MOSUNNY   85  81  88 MISG      30.09S HX  99
PEARLAND       MOSUNNY   86  76  71 S5        30.10S HX  96
HOUSTON HOOKS  PTSUNNY   86  78  77 VRB5      30.09S HX  98
ELLINGTON FLD  PTSUNNY   86  77  74 S5        30.10S HX  97
SUGAR LAND     MOSUNNY   86  78  77 SW7       30.08S HX  98
*HOUSTON EXEC  NOT AVBL
*CLEVELAND MUN PTSUNNY   85  79  82 SW5       30.11R HAZE    HX  97
*WHARTON       PTSUNNY   88  77  70 S9        30.08S HX  99
$$

TXZ214>216-236>238-221600-
THE UPPER TEXAS COAST

CITY           SKY/WX    TMP DP  RH WIND       PRES   REMARKS
*ORANGE        PTSUNNY   86  76  70 S5        30.12R HX  96
PORT ARTHUR    MOSUNNY   87  76  69 SW6       30.10R HX  97
GALVESTON      MOSUNNY   88  77  69 S8        30.09S HX 100
ANGLETON       MOSUNNY   87  75  67 S8        30.08S HX  96
*BAY CITY      PTSUNNY   90  77  66 SW8       30.07S HX 103
PALACIOS       PTSUNNY   89  77  67 S13       30.07R HX 101
$$

TXZ229>234-239>247-221600-
TEXAS COASTAL BEND AND RIO GRANDE PLAINS

CITY           SKY/WX    TMP DP  RH WIND       PRES   REMARKS
VICTORIA       MOSUNNY   89  74  60 S13       30.07R HX  98
*BEEVILLE      MOSUNNY   86  74  66 S13       30.06R HX  94
ROCKPORT       MOSUNNY   86  76  71 S12G18    30.05S HX  96
*PORT ARANSAS  SUNNY     84  78  83 S9        30.06R HX  96
*PORT LAVACA   MOSUNNY   88  75  66 S12       30.06S HX  98
*INGLESIDE     SUNNY     87  76  69 S16       30.05S HX  96
CORPUS CHRISTI MOSUNNY   88  75  65 S15G21    30.05R HX  97
CORPUS NAS     MOSUNNY   87  78  74 S13       30.05R HX 100
*ROBSTOWN      NOT AVBL
ALICE          SUNNY     87  74  64 S15       30.04S HX  95
KINGSVILLE NAS MOSUNNY   89  76  65 S16       30.05S HX 100
COTULLA        SUNNY     85  69  58 S14       30.03S
*FAITH RANCH   SUNNY     82  70  65 SE16      30.03S
LAREDO         SUNNY     87  70  57 S16       30.05R HX  92
$$

TXZ248>255-221600-
DEEP SOUTH TEXAS

CITY           SKY/WX    TMP DP  RH WIND       PRES   REMARKS
BROWNSVILLE    SUNNY     88  74  63 S14       30.05S HX  96
PORT ISABEL    SUNNY     89  73  59 S12       30.04F HX  97
*SOUTH PADRE   SUNNY     86  77  74 S8        30.05S HX  97
HARLINGEN      SUNNY     87  75  67 S16       30.04S HX  96
*HEBBRONVILLE  SUNNY     84  69  60 S13G22    30.05S
MCALLEN        MOSUNNY   85  75  72 S12       30.05S HX  93
*WESLACO       MOSUNNY   88  72  59 S12       30.04F HAZE    HX  94
FALFURRIAS     SUNNY     91  75  59 S14G22    30.04S HX 101
EDINBURG       MOSUNNY   88  72  60 S16       30.05S HX  94
*ZAPATA        MOSUNNY   86  67  53 S15       30.02R
$$

TXZ213>215-236>238-242>244-246-247-251-254-255-221600-
CMAN STATIONS

STATION/POSITION TIME  TEMP    WIND        PRES    WAVE
                       AIR SEA DIR/SP/G            HT/PER
                 (UTC) (F)     (DEG/KT/KT) (MB)    (FT/S)
SABINE PASS      1500   87 87  200/  5/ 10 1019.4
SEA RIM ST PARK  1500   86     200/  6/  7 1019.7
NORTH JETTY/GLS  1500   86 86  210/  6/  7   N/A
EAGLE POINT      1500   85 86  230/  3/  6 1019.1
MORGANS POINT    1500   85     210/  4/  6 1018.9
PORT O`CONNOR    1500          200/ 10/ 12   N/A
PORT ARANSAS     1500   81 82  170/ 11/ 11 1018.5
MALAQUITE BEACH  1500   80 80  160/  8/  9 1017.2
BAFFIN BAY       1500   83 81  170/ 11/ 13 1017.6
PORT ISABEL      1500   86 80  160/  7/ 10 1017.8
$$

GMZ080-GMZ150>470-221600-
OFFSHORE BUOY REPORTS

STATION/POSITION TIME  TEMP    WIND        PRES    WAVE
                       AIR SEA DIR/SP/G            HT/PER
                 (UTC) (F)     (DEG/KT/KT) (MB)    (FT/S)
90 E PT ARANSAS  1500   84 85  160/  8/ 10 1018.8    4/ 7
35 NE PT MANSFLD 1500   83 84  200/ 12/ 12 1017.4    4/ 7
200 E PT ISABEL  1500   85 86  100/  8/ 10 1017.9    2/ 6
$$



223
ASUS44 KLUB 221510
RWRTX
WEST TEXAS WEATHER ROUNDUP
NATIONAL WEATHER SERVICE LUBBOCK TX
1000 AM CDT FRI AUG 22 2014

NOTE: "FAIR" INDICATES FEW OR NO CLOUDS BELOW 12,000 FEET WITH NO
SIGNIFICANT WEATHER AND/OR OBSTRUCTIONS TO VISIBILITY.

TXZ004-006>008-010-012-014-016-OKZ002-221600-
TEXAS PANHANDLE/OKLAHOMA PANHANDLE

CITY           SKY/WX    TMP DP  RH WIND       PRES   REMARKS
AMARILLO       SUNNY     82  64  54 S18       30.06S
BORGER         MOSUNNY   86  61  42 SW16G24   30.02F
CANADIAN       SUNNY     87  66  49 SW12G18   29.99S
DALHART        MOSUNNY   83  58  42 SW16      30.06S
DUMAS          SUNNY     81  61  51 SW18G24   30.05S
GUYMON         MOSUNNY   86  60  41 SW14      29.98F
HEREFORD       SUNNY     79  66  64 S13       30.08S
PAMPA          SUNNY     84  60  44 SW16G24   30.04F
PERRYTON       MOSUNNY   81  66  59 S14       30.01R
$$

TXZ026-029-035-045-048-221600-
SOUTHERN PANHANDLE/SOUTH PLAINS/ROLLING PLAINS

CITY           SKY/WX    TMP DP  RH WIND       PRES   REMARKS
CHILDRESS      SUNNY     87  63  44 SW20G28   30.02S
SEMINOLE       SUNNY     81  61  49 SW9       30.11S
LUBBOCK        MOSUNNY   82  62  50 S18         N/A
PLAINVIEW      SUNNY     80  63  55 SW14G21   30.06F
SNYDER         SUNNY     80  65  60 S16       30.09S
$$

TXZ052-054-060>062-072-078-127-140-154-169-221600-
PERMIAN BASIN/CONCHO VALLEY/BIG COUNTRY/EDWARDS PLATEAU

CITY           SKY/WX    TMP DP  RH WIND       PRES   REMARKS
ABILENE        SUNNY     84  64  50 S16G26    30.06F
BIG SPRING     SUNNY     82  60  48 S14       30.11S
BRADY          SUNNY     81  64  57 S16       30.09S
BROWNWOOD      SUNNY     82  66  57 S14       30.09S
JUNCTION       SUNNY     80  66  62 S14       30.10S
MIDLAND        SUNNY     81  61  50 S14       30.09R
ODESSA         SUNNY     78  62  57 S13       30.10S
SAN ANGELO     SUNNY     82  62  50 S16G22    30.07S
SONORA         SUNNY     81  63  54 S16       30.13R
SWEETWATER     SUNNY     84  64  50 S17G23    30.11S
WINK           SUNNY     82  63  52 SE9       30.06S
$$

TXZ055-058-074-075-080-082-221600-
FAR WEST/SOUTHWEST MOUNTAINS/TRANS PECOS

CITY           SKY/WX    TMP DP  RH WIND       PRES   REMARKS
ALPINE         SUNNY     77  59  53 S8        30.22S
DRYDEN           N/A     83  65  54 SE13      30.06R
EL PASO        CLOUDY    67  63  87 SE6       30.13R
FORT STOCKTON  SUNNY     79  61  53 SE12      30.09S
GUADALUPE PASS SUNNY     71  57  61 SW21      30.20R
MARFA          MOSUNNY   75  61  60 S8        30.21S
PECOS          SUNNY     81  60  49 W5        30.06S
PRESIDIO       FAIR      77  66  68 CALM      30.07S
$$

TXZ014-016-019-021>030-083-221600
TEXAS TECH WEST TEXAS MESONET/TEXAS PANHANDLE/NORTHERN SOUTH PLAINS

CITY           SKY/WX    TMP DP  RH WIND       PRES   REMARKS
ABERNATHY 5ENE   N/A     82  61  49 S18       30.09F
AMARILLO 9NNE    N/A     83  64  52 S18       30.03F
AMARILLO 7SSE    N/A     82  64  53 SW21      30.07S
AMHERST 1NE      N/A     79  64  59 S14       30.09S
BOOTLEG 11WNW    N/A     80  58  46 SW17      30.12F
CANADIAN 6E      N/A     86  67  51 S9        29.99F
CAPROCK CYN SP   N/A     85  61  44 SW26      30.02F
CHILDRESS 2NNE   N/A     87  61  42 S20       30.01S
CLARENDON 2WSW   N/A     83  62  49 S15       30.04S
CLAUDE 12SW      N/A     81  64  55 S15       30.07S
DIMMITT 2NE      N/A     77  63  62 S17       30.09S
FLOYDADA 2NNE    N/A     81  60  49 S18       30.08S
FRIONA 2NE       N/A     78  61  55 SW16      30.10S
GOODLETT 3W      N/A     88  61  39 S18       30.00S
HART 3N          N/A     77  64  64 S16       30.09S
HEREFORD 2NW     N/A     76  62  59 SW15      30.08S
MCLEAN 1E        N/A     82  64  54 S17       30.02F
MEMPHIS 1NE      N/A     86  64  47 S9        30.01S
MULESHOE 2SSW    N/A     80  61  52 S13       30.08F
OLTON 6S         N/A     79  63  57 S15       30.08F
PALO DURO SP     N/A     82  63  52 SW14      30.07S
PAMPA 2E         N/A     83  63  50 S17       30.04S
PLAINVIEW 1S     N/A     80  63  55 S18       30.07F
SILVERTON 7ESE   N/A     83  62  48 SW18G29   30.06S
TULIA 2ENE       N/A     80  64  58 S20       30.07S
TURKEY 2WSW      N/A     85  62  45 S20       30.02S
UMBARGER 3NNE    N/A     80  63  55 S21       30.08S
$$

TXZ033>036-039>041-045>048-221600
TEXAS TECH WEST TEXAS MESONET/SOUTH PLAINS

CITY           SKY/WX    TMP DP  RH WIND       PRES   REMARKS
AIKEN 3WSW       N/A     82  63  52 S18       30.08F
ANTON 6SSW       N/A     80  64  58 S16       30.09R
BROWNFIELD 2S    N/A     80  61  53 S14       30.10R
DENVR CTY 7WNW   N/A     78  58  50 SW10      30.11S
GAIL 2ESE        N/A     81  61  50 S13       30.08R
LAMESA 2SE       N/A     79  63  57 S12       30.10R
LEVELLAND 4S     N/A     79  63  57 S14       30.10R
LUBBOCK 3WNW     N/A     81  61  50 S15       30.08F
MORTON 1ENE      N/A     79  63  57 SW12      30.10S
ODONNELL 1N      N/A     78  61  55 S14       30.10R
PLAINS 3N        N/A     79  61  55 SW10      30.11S
RALLS 1SE        N/A     80  61  52 S17       30.10S
REESE CENTER     N/A     80  62  54 S17       30.09R
SEAGRAVES 1SW    N/A     81  62  52 S12       30.10S
SEMINOLE 2NNE    N/A     81  60  47 S12       30.10R
SLATON 2NE       N/A     80  61  51 S17       30.09S
SNYDER 3E        N/A     83  65  54 S17       30.08R
SUNDOWN 8SW      N/A     80  63  56 S12       30.11R
TAHOKA 3NNE      N/A     80  60  50 S17       30.09R
WOLFFORTH 6SSW   N/A     80  62  54 S15       30.10S
$$

TXZ031-032-036>038-042>044-221600-
TEXAS TECH WEST TEXAS MESONET/ROLLING PLAINS

CITY           SKY/WX    TMP DP  RH WIND       PRES   REMARKS
ASPERMONT 3NE    N/A     85  67  55 S16G25    30.04S
FLUVANNA 3WNW    N/A     78  62  57 S17       30.08F
GRAHAM 5SSW      N/A     80  59  50 S17       30.08S
GUTHRIE 10WSW    N/A     87  61  41 S21       30.03S
HASKELL 1NW      N/A     85  65  50 S16       30.03S
JAYTON 1SSE      N/A     85  63  46 SW15      30.04F
KNOX CITY 3NW    N/A     87  64  46 SW18      30.03S
LK A HENRY 1NW   N/A     83  60  45 S14       30.05S
NORTHFIELD 1S    N/A     87  62  43 S16       30.01S
ODELL 4ENE       N/A     88  67  48 S14       30.00F
PADUCAH 10SW     N/A     85  62  45 S21       30.02S
POST 1NE         N/A     82  58  44 S16       30.06S
RRING SPRGS 3N   N/A     83  62  50 S18       30.05S
SEYMOUR 3NW      N/A     87  67  50 S16       30.01F
SPUR 1W          N/A     85  58  41 SW15      30.04F
WEINERT 2NNE     N/A     85  68  56 S18       30.03S
WHITE RVR 6NE    N/A     81  62  52 S15       30.06F
$$

TXZ052-054-060>062-072-078-127-140-154-169-221600-
TEXAS TECH WEST TEXAS MESONET/PERMIAN BASIN/
CONCHO VALLEY/BIG COUNTRY/EDWARDS PLATEAU

CITY           SKY/WX    TMP DP  RH WIND       PRES   REMARKS
COYANOSA 2N      N/A     83  65  54 S8        30.06R
JUNCTION 1SSW    N/A     81  66  60 S9        30.10S
MERTZON 3NNE     N/A     81  63  53 S14       30.10R
SAN ANGELO 7NW   N/A     81  63  52 S9        30.09R
STRLNG CT 4WSW   N/A     82  63  52 S12       30.10R
ST LAWRNCE 5SW   N/A     79  61  52 S16       30.10R
SWEETWATR 11SW   N/A     82  64  54 S18       30.09S
WALL 1E          N/A     81  63  55 S10       30.08S
$$

TXZ055-058-074-075-080-082-221600-
TEXAS TECH WEST TEXAS MESONET/FAR WEST/SOUTHWEST MOUNTAINS/TRANS PECOS

CITY           SKY/WX    TMP DP  RH WIND       PRES   REMARKS
PRSMN GAP BBNP   N/A     81  63  54 N10       30.08S
GUADLPE MTN NP   N/A     75  52  44 W13       30.21R
$$



259
ASUS44 KFWD 221510
RWRTX
NORTH TEXAS HOURLY WEATHER ROUNDUP
NATIONAL WEATHER SERVICE FORT WORTH TX
1000 AM CDT FRI AUG 22 2014

NOTE: "FAIR" INDICATES FEW OR NO CLOUDS BELOW 12,000 FEET WITH NO
SIGNIFICANT WEATHER AND/OR OBSTRUCTIONS TO VISIBILITY.

TXZ118-119-221600-
DALLAS/FORT WORTH METROPLEX

CITY           SKY/WX    TMP DP  RH WIND       PRES   REMARKS
DFW AIRPORT    SUNNY     86  72  62 S20G26    30.04S HX  92
DALLAS LOVE    SUNNY     84  72  67 SW13G22   30.05S
FTW MEACHAM    SUNNY     86  72  62 S21       30.04F HX  92
DAL-EXECUTIVE  SUNNY     86  71  60 SW9G21    30.05F HX  91
FTW-ALLIANCE   SUNNY     86  70  58 S14G23    30.03S HX  90
FTW-NAS-JRB    SUNNY     89  69  51 S20       30.09S HX  93
FTW-SPINKS     SUNNY     84  72  65 S9G18     30.07S
ARLINGTON      SUNNY     85  71  63 S12G22    30.05F HX  90
LANCASTER      SUNNY     84  70  62 SW12G17   30.07S
$$

TXZ091>094-102>105-117-120-121-131>134-221600-
NORTH CENTRAL TEXAS

CITY           SKY/WX    TMP DP  RH WIND       PRES   REMARKS
SHRMAN/DENISON SUNNY     85  72  64 SW17      30.05F HX  91
GAINESVILLE    SUNNY     83  72  67 S15G24    30.06F
BOWIE          SUNNY     85  71  62 S15       30.04F
BRIDGEPORT     SUNNY     85  66  54 SW12G22   30.06S
DECATUR        SUNNY     83  69  61 S14       30.06S
DENTON         SUNNY     85  70  60 S21G26    30.04F
MCKINNEY       SUNNY     84  72  67 SW12      30.05S
GREENVILLE       N/A     86  70  58 SW14G21   30.07S HX  90
ROCKWALL       SUNNY     84  74  71 SW15G21   30.05S HX  90
TERRELL        SUNNY     86  74  67 SW14      30.07S HX  94
WAXAHACHIE     SUNNY     84  69  61 SW15G22   30.08S
CLEBURNE       SUNNY     82  73  74 S15       30.08F
GRANBURY       SUNNY     87  68  53 S13       30.07S HX  91
$$

TXZ083>090-098>101-113>116-127>130-139>142-154-155-221600-
WESTERN NORTH TEXAS

CITY           SKY/WX    TMP DP  RH WIND       PRES   REMARKS
WICHITA FALLS  SUNNY     88  70  55 S20G26    30.00F HX  93
WF-KICKAPOO    SUNNY     88  67  49 SW13G23   30.03S HX  90
VERNON         SUNNY     89  66  46 S18       30.01F HX  91
ABILENE        SUNNY     84  64  50 S16G26    30.06F
ABILENE-DYESS  SUNNY     84  65  53 S15G26    30.05S
BRECKENRIDGE   SUNNY     87  62  43 SW18G29   30.05S HAZE
GRAHAM         SUNNY     86  65  49 S16       30.03S
MINERAL WELLS  SUNNY     85  70  60 MISG      30.04F
STEPHENVILLE   SUNNY     83  67  58 S14G20    30.10F
COMANCHE       SUNNY     83  66  56 S12G18    30.08F
BROWNWOOD      SUNNY     82  66  57 S14       30.09S
COLEMAN        SUNNY     80  66  61 S16       30.09S
BRADY          SUNNY     81  64  57 S16       30.09S
$$

TXZ143>147-156>162-174-175-221600-
CENTRAL TEXAS

CITY           SKY/WX    TMP DP  RH WIND       PRES   REMARKS
WACO           SUNNY     86  72  62 S15       30.07S HX  92
WACO-TSTC      MOSUNNY   86  73  66 SW10      30.07S HX  93
WACO-MCGREGOR  SUNNY     86  70  58 S15G21    30.08F HX  90
HILLSBORO      SUNNY     85  71  62 S13G21    30.08S HX  90
CORSICANA      SUNNY     86  72  62 SW13      30.09R HX  92
MEXIA          MOSUNNY   85  74  70 SW14      30.08R HX  92
HEARNE           N/A     87  75  68 S9        30.08S HX  95
CAMERON        MOSUNNY   87  74  66 SW10G20   30.07S HX  95
TEMPLE         MOSUNNY   84  70  61 S14G20    30.07S
KILLEEN        MOSUNNY   84  72  65 S15G21    30.08S
KILLEEN-SKYLRK SUNNY     86  70  58 S10G18    30.08S HX  90
FORT HOOD      SUNNY     87  70  56 S13G20    30.08S HX  92
GATESVILLE     SUNNY     84  70  61 SW15      30.10S
HAMILTON       SUNNY     85  67  54 S16       30.10S
LAMPASAS       SUNNY     83  70  64 S10G18    30.08S
$$

TXZ095>097-106>112-122>126-135>138-148>153-164>167-221600-
EAST TEXAS

CITY           SKY/WX    TMP DP  RH WIND       PRES   REMARKS
PARIS          SUNNY     82  70  65 SW17G24   30.07S
SULPHUR SPRNGS SUNNY     85  72  65 SW16      30.09S HX  91
CLARKSVILLE    MOSUNNY   84  73  68 SW7       30.07S HX  90
MOUNT PLEASANT MOSUNNY   84  73  69 SW9       30.09F HX  90
GILMER         SUNNY     82  75  78 S10       30.10S
MINEOLA        MOSUNNY   84  75  74 SW8       30.09S HX  92
TYLER          MOSUNNY   83  73  72 SW12G20   30.09R
LONGVIEW       MOSUNNY   84  73  69 SW9       30.09S HX  90
MARSHALL       MOSUNNY   86  76  71 SW8       30.11S HX  96
ATHENS         MOSUNNY   82  73  74 SW8       30.08R
PALESTINE      PTSUNNY   83  76  79 SW12      30.10S HX  90
JACKSONVILLE   MOSUNNY   82  75  79 SW7       30.12S
HENDERSON      PTSUNNY   83  74  73 SW5       30.11S
NACOGDOCHES    PTSUNNY   81  75  83 SW8       30.11S
LUFKIN         CLOUDY    83  76  79 SW8       30.10S HX  91
$$

SUPPLEMENTAL OBSERVATIONS (CENTRAL)

CITY           SKY/WX    TMP DP  RH WIND       PRES   REMARKS
CADDO GRASSLND   N/A     84  72  65 SW8G17      N/A
PAT MAYSE LAKE   N/A     82  72  69 S15         N/A
GREENVILLE       N/A     86  73  66 SW13        N/A  HX  93
CEDAR HILL       N/A     86  72  62 S9G17       N/A  HX  92
PALESTINE        N/A     86  75  70 SW2         N/A  HX  95
MCGREGOR         N/A     88  72  58 S9          N/A  HX  94
TEMPLE           N/A     88  72  58 S10G20      N/A  HX  94
$$

SUPPLEMENTAL OBSERVATIONS (WEST)

CITY           SKY/WX    TMP DP  RH WIND       PRES   REMARKS
MILLERS CREEK    N/A     88  72  58 SW17G25     N/A  HX  94
POSSUM KINGDOM   N/A     88  63  42 SW13G22     N/A
LBJ GRASSLAND    N/A     86  70  58 S10         N/A  HX  90
GRANBURY         N/A     88  68  51 S15G22      N/A  HX  91
HAMBY            N/A     84  63  48 S22         N/A
IVIE RESERVOIR   N/A     84  63  48 S13         N/A
COLORADO BEND    N/A     84  66  54 S13         N/A
$$

SUPPLEMENTAL OBSERVATIONS (EAST)

CITY           SKY/WX    TMP DP  RH WIND       PRES   REMARKS
CLARKSVILLE      N/A     88  75  66 SW5         N/A  HX  97
TEXARKANA        N/A     84  73  70 S6          N/A  HX  91
LINDEN           N/A     86  73  66 SW3         N/A  HX  93
GILMER           N/A     84  73  70 SW9         N/A  HX  91
HENDERSON        N/A     84  73  70 SW10        N/A  HX  91
S SABINE NF      N/A     88  81  79 S3          N/A  HX 105
$$

SUPPLEMENTAL OBSERVATIONS ARE A COLLECTION OF AUTOMATED INSTRUMENTS
THAT ARE MAINTAINED BY A VARIETY OF FEDERAL AND STATE AGENCIES.
CERTAIN ELEMENTS...SUCH AS HUMIDITY VALUES AND SUSTAINED WIND
SPEEDS...MAY BE APPROXIMATED.